Time,TemperatureF,DewpointF,PressureIn,WindDirection,WindDirectionDegrees,WindSpeedMPH,WindSpeedGustMPH,Humidity,HourlyPrecipIn,Conditions,Clouds,dailyrainin,SoftwareType,DateUTC
2013-01-02 18:07:00,32.5,16.3,30.09,WSW,245,2.0,7.0,51,0.00,,,0.00,meteohub,2013-01-02 23:07:00,
2013-01-02 18:12:00,32.5,16.3,30.09,SSW,208,1.0,7.0,51,0.00,,,0.00,meteohub,2013-01-02 23:12:00,
2013-01-02 18:17:00,32.5,16.3,30.10,SW,225,2.0,7.0,51,0.00,,,0.00,meteohub,2013-01-02 23:17:00,
2013-01-02 18:22:00,32.5,16.3,30.10,SW,225,1.0,6.0,51,0.00,,,0.00,meteohub,2013-01-02 23:22:00,
2013-01-02 18:27:00,32.5,16.3,30.10,WSW,240,1.0,6.0,51,0.00,,,0.00,meteohub,2013-01-02 23:27:00,
2013-01-02 18:32:00,32.5,16.3,30.11,NNE,32,6.0,6.0,51,0.00,,,0.00,meteohub,2013-01-02 23:32:00,
2013-01-02 18:37:00,32.4,16.3,30.11,SSE,166,1.0,6.0,51,0.00,,,0.00,meteohub,2013-01-02 23:37:00,
2013-01-02 18:42:00,32.4,16.7,30.11,SW,233,1.0,7.0,52,0.00,,,0.00,meteohub,2013-01-02 23:42:00,
2013-01-02 18:47:00,32.4,16.7,30.11,SW,228,2.0,7.0,52,0.00,,,0.00,meteohub,2013-01-02 23:47:00,
2013-01-02 18:52:00,32.4,16.7,30.11,SW,221,0.0,7.0,52,0.00,,,0.00,meteohub,2013-01-02 23:52:00,
2013-01-02 18:57:00,32.4,16.7,30.11,SW,232,2.0,6.0,52,0.00,,,0.00,meteohub,2013-01-02 23:57:00,
2013-01-02 19:02:00,32.2,16.5,30.11,WNW,282,3.0,5.0,52,0.00,,,0.00,meteohub,2013-01-03 00:02:00,
2013-01-02 19:07:00,32.2,16.5,30.11,SW,233,1.0,5.0,52,0.00,,,0.00,meteohub,2013-01-03 00:07:00,
2013-01-02 19:12:00,32.2,17.1,30.11,SW,226,1.0,5.0,53,0.00,,,0.00,meteohub,2013-01-03 00:12:00,
2013-01-02 19:17:00,32.2,17.1,30.10,West,262,2.0,5.0,53,0.00,,,0.00,meteohub,2013-01-03 00:17:00,
2013-01-02 19:22:00,32.2,17.1,30.10,SW,232,1.0,5.0,53,0.00,,,0.00,meteohub,2013-01-03 00:22:00,
2013-01-02 19:27:00,32.2,17.1,30.10,WSW,256,2.0,5.0,53,0.00,,,0.00,meteohub,2013-01-03 00:27:00,
2013-01-02 19:32:00,32.2,17.1,30.11,NNW,337,2.0,4.0,53,0.00,,,0.00,meteohub,2013-01-03 00:32:00,
2013-01-02 19:37:00,32.0,16.9,30.11,WSW,245,2.0,6.0,53,0.00,,,0.00,meteohub,2013-01-03 00:37:00,
2013-01-02 19:42:00,32.0,16.9,30.11,WNW,300,3.0,8.0,53,0.00,,,0.00,meteohub,2013-01-03 00:42:00,
2013-01-02 19:47:00,32.0,16.9,30.11,West,260,2.0,8.0,53,0.00,,,0.00,meteohub,2013-01-03 00:47:00,
2013-01-02 19:53:00,32.2,17.1,30.11,NW,326,4.0,8.0,53,0.00,,,0.00,meteohub,2013-01-03 00:53:00,
2013-01-02 19:58:00,32.0,17.2,30.11,WSW,249,2.0,9.0,54,0.00,,,0.00,meteohub,2013-01-03 00:58:00,
2013-01-02 20:03:00,31.8,17.1,30.11,SW,226,0.0,9.0,54,0.00,,,0.00,meteohub,2013-01-03 01:03:00,
2013-01-02 20:08:00,31.8,17.1,30.11,WSW,239,2.0,6.0,54,0.00,,,0.00,meteohub,2013-01-03 01:08:00,
2013-01-02 20:13:00,31.6,17.2,30.11,SSW,200,1.0,3.0,55,0.00,,,0.00,meteohub,2013-01-03 01:13:00,
2013-01-02 20:18:00,31.6,17.2,30.11,SW,218,1.0,5.0,55,0.00,,,0.00,meteohub,2013-01-03 01:18:00,
2013-01-02 20:24:00,31.5,17.2,30.11,NW,309,3.0,5.0,55,0.00,,,0.00,meteohub,2013-01-03 01:24:00,
2013-01-02 20:29:00,31.5,17.2,30.11,SW,225,0.0,6.0,55,0.00,,,0.00,meteohub,2013-01-03 01:29:00,
2013-01-02 20:34:00,31.5,17.6,30.11,WSW,256,1.0,6.0,56,0.00,,,0.00,meteohub,2013-01-03 01:34:00,
2013-01-02 20:39:00,31.5,17.6,30.11,NNW,339,3.0,6.0,56,0.00,,,0.00,meteohub,2013-01-03 01:39:00,
2013-01-02 20:44:00,31.5,17.6,30.11,WSW,242,2.0,5.0,56,0.00,,,0.00,meteohub,2013-01-03 01:44:00,
2013-01-02 20:50:00,31.5,17.6,30.12,WSW,243,2.0,4.0,56,0.00,,,0.00,meteohub,2013-01-03 01:50:00,
2013-01-02 20:55:00,31.5,17.6,30.11,SW,222,0.0,4.0,56,0.00,,,0.00,meteohub,2013-01-03 01:55:00,
2013-01-02 21:00:00,31.5,17.6,30.12,WNW,294,2.0,4.0,56,0.00,,,0.00,meteohub,2013-01-03 02:00:00,
2013-01-02 21:05:00,31.5,17.6,30.12,NW,312,3.0,4.0,56,0.00,,,0.00,meteohub,2013-01-03 02:05:00,
2013-01-02 21:10:00,31.5,18.0,30.12,WSW,248,1.0,5.0,57,0.00,,,0.00,meteohub,2013-01-03 02:10:00,
2013-01-02 21:16:00,31.5,18.0,30.12,NW,323,2.0,6.0,57,0.00,,,0.00,meteohub,2013-01-03 02:16:00,
2013-01-02 21:21:00,31.5,18.0,30.12,WNW,286,2.0,6.0,57,0.00,,,0.00,meteohub,2013-01-03 02:21:00,
2013-01-02 21:26:00,31.5,18.0,30.12,SW,222,1.0,6.0,57,0.00,,,0.00,meteohub,2013-01-03 02:26:00,
2013-01-02 21:31:00,31.6,18.1,30.12,North,357,5.0,6.0,57,0.00,,,0.00,meteohub,2013-01-03 02:31:00,
2013-01-02 21:36:00,31.6,18.1,30.13,WNW,288,2.0,8.0,57,0.00,,,0.00,meteohub,2013-01-03 02:36:00,
2013-01-02 21:41:00,31.6,18.1,30.13,West,259,4.0,8.0,57,0.00,,,0.00,meteohub,2013-01-03 02:41:00,
2013-01-02 21:47:00,31.6,18.1,30.13,SW,224,1.0,8.0,57,0.00,,,0.00,meteohub,2013-01-03 02:47:00,
2013-01-02 21:52:00,31.6,18.1,30.13,SW,219,1.0,7.0,57,0.00,,,0.00,meteohub,2013-01-03 02:52:00,
2013-01-02 21:57:00,31.6,18.1,30.13,SW,234,2.0,7.0,57,0.00,,,0.00,meteohub,2013-01-03 02:57:00,
2013-01-02 22:02:00,31.5,18.0,30.13,SW,231,1.0,5.0,57,0.00,,,0.00,meteohub,2013-01-03 03:02:00,
2013-01-02 22:07:00,31.6,18.1,30.13,SW,232,2.0,5.0,57,0.00,,,0.00,meteohub,2013-01-03 03:07:00,
2013-01-02 22:12:00,31.5,18.0,30.13,SW,233,1.0,5.0,57,0.00,,,0.00,meteohub,2013-01-03 03:12:00,
2013-01-02 22:18:00,31.5,18.0,30.13,WSW,249,2.0,6.0,57,0.00,,,0.00,meteohub,2013-01-03 03:18:00,
2013-01-02 22:23:00,31.5,18.3,30.13,SW,226,2.0,6.0,58,0.00,,,0.00,meteohub,2013-01-03 03:23:00,
2013-01-02 22:28:00,31.5,18.3,30.13,West,266,1.0,6.0,58,0.00,,,0.00,meteohub,2013-01-03 03:28:00,
2013-01-02 22:37:00,31.5,18.0,30.13,SW,232,2.0,6.0,57,0.00,,,0.00,meteohub,2013-01-03 03:37:00,
2013-01-02 22:46:00,31.5,18.3,30.14,WSW,242,2.0,6.0,58,0.00,,,0.00,meteohub,2013-01-03 03:46:00,
2013-01-02 22:51:00,31.5,18.3,30.14,West,266,3.0,8.0,58,0.00,,,0.00,meteohub,2013-01-03 03:51:00,
2013-01-02 22:56:00,31.5,18.3,30.14,SSW,205,1.0,8.0,58,0.00,,,0.00,meteohub,2013-01-03 03:56:00,
2013-01-02 23:01:00,31.3,18.1,30.15,SSW,211,1.0,6.0,58,0.00,,,0.00,meteohub,2013-01-03 04:01:00,
2013-01-02 23:07:00,31.3,18.1,30.15,NE,39,2.0,6.0,58,0.00,,,0.00,meteohub,2013-01-03 04:07:00,
2013-01-02 23:12:00,31.3,18.7,30.15,WSW,245,1.0,5.0,59,0.00,,,0.00,meteohub,2013-01-03 04:12:00,
2013-01-02 23:17:00,31.1,18.5,30.15,WSW,240,1.0,5.0,59,0.00,,,0.00,meteohub,2013-01-03 04:17:00,
2013-01-02 23:22:00,31.1,18.5,30.15,WSW,240,3.0,3.0,59,0.00,,,0.00,meteohub,2013-01-03 04:22:00,
2013-01-02 23:27:00,30.9,18.7,30.15,SW,225,1.0,5.0,60,0.00,,,0.00,meteohub,2013-01-03 04:27:00,
2013-01-02 23:32:00,30.9,18.3,30.15,NNW,327,4.0,7.0,59,0.00,,,0.00,meteohub,2013-01-03 04:32:00,
2013-01-02 23:37:00,30.9,18.3,30.15,SE,132,2.0,7.0,59,0.00,,,0.00,meteohub,2013-01-03 04:37:00,
2013-01-02 23:42:00,30.9,18.3,30.15,WSW,239,3.0,7.0,59,0.00,,,0.00,meteohub,2013-01-03 04:42:00,
2013-01-02 23:47:00,30.9,18.3,30.15,SW,224,0.0,7.0,59,0.00,,,0.00,meteohub,2013-01-03 04:47:00,
2013-01-02 23:52:00,30.9,18.7,30.15,SW,219,1.0,7.0,60,0.00,,,0.00,meteohub,2013-01-03 04:52:00,
2013-01-02 23:57:00,30.9,18.7,30.15,SW,217,1.0,7.0,60,0.00,,,0.00,meteohub,2013-01-03 04:57:00,